Weather History for Eagle, AK

Change the Weather History Date:

Wednesday, December 11, 2013

  Actual Average (PABN) Record (PABN)
Temperature  
Mean Temperature -20 °F -  
Max Temperature -6 °F 3 °F 33 °F (1996)
Min Temperature -33 °F 0 °F -16 °F (2001)
Degree Days  
Heating Degree Days 84    
Moisture  
Dew Point -25 °F    
Average Humidity 72    
Maximum Humidity 78    
Minimum Humidity 68    
Precipitation  
Precipitation 0.00 in - - ()
Sea Level Pressure  
Sea Level Pressure 30.40 in    
Wind  
Wind Speed 3 mph (West)    
Max Wind Speed 6 mph    
Max Gust Speed -    
Visibility 10 miles    
Events      
Averages and records for this station are not official NWS values.
T = Trace of Precipitation, MM = Missing Value Source: NWS Daily Summary

Daily Weather History Graph

Daily Weather History Graph

Search for Another Location

Airport:

Trip Planner

Search our weather history database for the weather conditions in past years. The results will help you decide how hot, cold, wet, or windy it might be!

Date:

Astronomy

Dec. 11, 2013 Rise Set
Actual Time 10:18 AM AKST 2:17 PM AKST
Civil Twilight 8:56 AM AKST 3:39 PM AKST
Nautical Twilight 7:45 AM AKST 4:50 PM AKST
Astronomical Twilight 6:44 AM AKST 5:51 PM AKST
Moon 12:51 PM AKST (12/11) 2:44 AM AKST (12/11)
Length of Visible Light 6h 43m
Length of Day
3h 59m
Waxing Gibbous, 73% of the Moon is Illuminated
Dec 11
Waxing Gibbous
Dec 17
Full
Dec 25
Last Quarter
Jan 1
New
Jan 7
First Quarter

Hourly Weather History & Observations

Time (AKST) Temp. Windchill Dew Point Humidity Pressure Visibility Wind Dir Wind Speed Gust Speed Precip Events Conditions
12:53 AM -13.0 °F -22.7 °F -18.0 °F 78% 30.48 in 10.0 mi Variable 3.5 mph - N/A   Clear
1:53 AM -6.0 °F -18.6 °F -14.1 °F 68% 30.47 in 10.0 mi NNW 5.8 mph - N/A   Clear
2:53 AM -9.9 °F -19.2 °F -16.1 °F 74% 30.46 in 10.0 mi West 3.5 mph - N/A   Clear
3:53 AM -9.9 °F -19.2 °F -17.0 °F 71% 30.45 in 10.0 mi WNW 3.5 mph - N/A   Clear
4:53 AM -13.0 °F -22.7 °F -20.9 °F 68% 30.44 in 10.0 mi Variable 3.5 mph - N/A   Clear
5:53 AM -9.9 °F -23.4 °F -16.1 °F 74% 30.43 in 10.0 mi West 5.8 mph - N/A   Clear
6:53 AM -15.0 °F - -22.0 °F 71% 30.42 in 10.0 mi Calm Calm - N/A   Clear
7:53 AM -17.0 °F -31.7 °F -24.0 °F 70% 30.43 in 10.0 mi NNW 5.8 mph - N/A   Clear
8:53 AM -20.0 °F - -26.0 °F 74% 30.43 in 10.0 mi Calm Calm - N/A   Clear
9:53 AM -24.0 °F - -31.0 °F 70% 30.43 in 10.0 mi Calm Calm - N/A   Clear
10:46 AM -24.0 °F -37.9 °F -31.0 °F 70% 30.33 in 2.5 mi West 4.6 mph - N/A   Haze
10:53 AM -25.1 °F -39.1 °F -32.1 °F 70% 30.43 in 10.0 mi West 4.6 mph - N/A   Clear
11:53 AM -26.0 °F -40.2 °F -32.1 °F 73% 30.43 in 10.0 mi WSW 4.6 mph - N/A   Clear
12:53 PM -26.0 °F -37.5 °F -32.1 °F 73% 30.40 in 10.0 mi West 3.5 mph - N/A   Clear
1:53 PM -27.0 °F - -33.0 °F 73% 30.38 in 10.0 mi Calm Calm - N/A   Clear
2:53 PM -29.0 °F - -36.0 °F 69% 30.38 in 10.0 mi Calm Calm - N/A   Clear
3:53 PM -31.0 °F - - N/A% 30.36 in 10.0 mi Calm Calm - N/A   Clear
4:53 PM -32.1 °F - - N/A% 30.36 in 10.0 mi Calm Calm - N/A   Clear
5:53 PM -33.0 °F - - N/A% 30.36 in 10.0 mi Calm Calm - N/A   Clear
6:53 PM -32.1 °F -44.5 °F - N/A% 30.35 in 10.0 mi WSW 3.5 mph - N/A   Clear
7:53 PM -33.0 °F -45.5 °F - N/A% 30.35 in 10.0 mi SSW 3.5 mph - N/A   Clear
8:53 PM -32.1 °F -44.5 °F - N/A% 30.36 in 10.0 mi SW 3.5 mph - N/A   Clear
9:53 PM -31.0 °F - - N/A% 30.36 in 10.0 mi Calm Calm - N/A   Clear
10:53 PM -32.1 °F - - N/A% 30.35 in 10.0 mi Calm Calm - N/A   Clear
11:53 PM -32.1 °F -49.6 °F - N/A% 30.34 in 10.0 mi WSW 5.8 mph - N/A   Clear